Location: Unspecified
(0.0000°N, 0.0000°E)
Time: 11:32:19
(UTC+00:00)

Explorer 11/Cluster Stage 4 - Pass Details

Date: 07 October 2020
Orbit: 467 x 1258 km, 28.8° (Epoch: 28 October)

Event Time Altitude Azimuth Distance (km) Brightness Sun altitude
Rises 17:45:47 0° 259° (W) 2,881 12.7 0.5°
Reaches altitude 10° 17:48:37 10° 273° (W) 1,853 10.6 -0.2°
Maximum altitude 17:52:01 24° 328° (NNW) 1,100 7.7 -1.1°
Drops below altitude 10° 17:55:05 10° 23° (NNE) 1,650 8.0 -1.9°
Sets 17:57:27 0° 39° (NE) 2,488 8.7 -2.4°
